Dumas, TX

11:10 AM CST on December 13, 2017 (GMT -0600)
Moore County

Weather History for KDUX - April, 2013

Change the Weather History Date:

Monday, April 22, 2013

  Actual Average (KDHT) Record (KDHT)
Temperature  
Mean Temperature 58 °F -  
Max Temperature 84 °F 67 °F 94 °F (1989)
Min Temperature 32 °F 38 °F 27 °F (1982)
Degree Days  
Heating Degree Days 6    
Growing Degree Days 8 (Base 50)    
Moisture  
Dew Point 34 °F    
Average Humidity 50    
Maximum Humidity 86    
Minimum Humidity 9    
Precipitation  
Precipitation 0.00 in - - ()
Sea Level Pressure  
Sea Level Pressure 29.88 in    
Wind  
Wind Speed 18 mph (SSW)    
Max Wind Speed 40 mph    
Max Gust Speed 48 mph    
Visibility 9 miles    
Events      
Averages and records for this station are not official NWS values.
T = Trace of Precipitation, MM = Missing Value Source: NWS Daily Summary

Daily Weather History Graph

Daily Weather History Graph

Search for Another Location

Airport or City:

Trip Planner

Search our weather history database for the weather conditions in past years. The results will help you decide how hot, cold, wet, or windy it might be!

Date:

Astronomy

Apr. 22, 2013 Rise Set
Actual Time 7:05 AM CDT 8:27 PM CDT
Civil Twilight 6:39 AM CDT 8:54 PM CDT
Nautical Twilight 6:07 AM CDT 9:26 PM CDT
Astronomical Twilight 5:33 AM CDT 10:00 PM CDT
Moon 5:24 PM CDT (4/22) 4:55 AM CDT (4/22)
Length of Visible Light 14h 15m
Length of Day
13h 21m
Waxing Gibbous, 88% of the Moon is Illuminated
Apr 22
Waxing Gibbous
Apr 25
Full
May 2
Last Quarter
May 9
New
May 17
First Quarter

Hourly Weather History & Observations

Time (CDT) Temp. Windchill Dew Point Humidity Pressure Visibility Wind Dir Wind Speed Gust Speed Precip Events Conditions
12:15 AM 54.5 °F - 39.4 °F 57% 29.98 in 10.0 mi SE 18.4 mph 23.0 mph N/A   Clear
12:35 AM 55.0 °F - 40.6 °F 58% 29.97 in 10.0 mi SE 21.9 mph - N/A   Clear
12:55 AM 54.5 °F - 41.2 °F 61% 29.96 in 10.0 mi SE 19.6 mph 27.6 mph N/A   Clear
1:15 AM 54.0 °F - 41.2 °F 62% 29.96 in 10.0 mi SSE 19.6 mph 23.0 mph N/A   Clear
1:35 AM 54.1 °F - 41.9 °F 63% 29.96 in 10.0 mi SSE 18.4 mph 25.3 mph N/A   Clear
1:55 AM 52.9 °F - 41.4 °F 65% 29.96 in 10.0 mi SSE 19.6 mph 24.2 mph N/A   Clear
2:15 AM 52.7 °F - 41.9 °F 67% 29.96 in 10.0 mi SSE 16.1 mph - N/A   Clear
2:35 AM 51.8 °F - 42.1 °F 69% 29.94 in 10.0 mi SSE 17.3 mph - N/A   Clear
2:55 AM 51.3 °F - 42.3 °F 71% 29.93 in 10.0 mi SSE 16.1 mph - N/A   Clear
3:35 AM 50.0 °F - 42.3 °F 75% 29.93 in 10.0 mi SSE 12.7 mph - N/A   Clear
3:55 AM 49.3 °F - 42.3 °F 77% 29.92 in 10.0 mi South 10.4 mph - N/A   Clear
4:15 AM 49.3 °F - 43.0 °F 79% 29.92 in 10.0 mi South 15.0 mph - N/A   Clear
4:35 AM 50.4 °F - 43.7 °F 78% 29.92 in 10.0 mi South 16.1 mph 21.9 mph N/A   Clear
5:15 AM 48.6 °F - 43.3 °F 82% 29.91 in 10.0 mi South 11.5 mph - N/A   Clear
5:35 AM 47.5 °F - 43.0 °F 84% 29.90 in 10.0 mi South 15.0 mph - N/A   Clear
5:55 AM 48.2 °F - 43.2 °F 83% 29.89 in 10.0 mi South 18.4 mph - N/A   Clear
6:15 AM 48.0 °F - 43.2 °F 83% 29.89 in 10.0 mi SSW 15.0 mph - N/A   Clear
6:35 AM 47.3 °F - 42.8 °F 84% 29.88 in 10.0 mi SSW 13.8 mph 18.4 mph N/A   Clear
6:55 AM 46.8 °F - 42.8 °F 86% 29.88 in 10.0 mi SSW 15.0 mph - N/A   Clear
7:15 AM 46.8 °F - 42.8 °F 86% 29.89 in 10.0 mi SSW 15.0 mph - N/A   Clear
7:35 AM 46.8 °F - 42.8 °F 86% 29.90 in 10.0 mi SSW 12.7 mph - N/A   Clear
7:55 AM 48.2 °F - 43.0 °F 82% 29.90 in 10.0 mi SSW 11.5 mph - N/A   Clear
8:15 AM 50.4 °F - 43.7 °F 78% 29.90 in 10.0 mi SSW 13.8 mph - N/A   Clear
8:35 AM 51.8 °F - 43.7 °F 74% 29.91 in 10.0 mi SSW 12.7 mph - N/A   Clear
8:55 AM 54.3 °F - 43.0 °F 66% 29.91 in 10.0 mi SW 6.9 mph - N/A   Clear
9:15 AM 56.8 °F - 41.0 °F 55% 29.91 in 10.0 mi SW 13.8 mph - N/A   Clear
9:35 AM 58.6 °F - 38.3 °F 47% 29.91 in 10.0 mi WSW 6.9 mph - N/A   Clear
9:55 AM 61.5 °F - 35.2 °F 37% 29.91 in 10.0 mi SW 10.4 mph - N/A   Clear
10:15 AM 62.6 °F - 34.9 °F 36% 29.91 in 10.0 mi SW 12.7 mph - N/A   Clear
10:35 AM 64.8 °F - 35.1 °F 33% 29.91 in 10.0 mi SW 11.5 mph - N/A   Clear
10:55 AM 67.3 °F - 32.0 °F 27% 29.91 in 10.0 mi SW 11.5 mph - N/A   Clear
11:15 AM 69.6 °F - 30.7 °F 24% 29.91 in 10.0 mi SW 10.4 mph - N/A   Clear
11:35 AM 72.5 °F - 26.4 °F 18% 29.90 in 10.0 mi SW 11.5 mph - N/A   Clear
11:55 AM 74.1 °F - 25.7 °F 17% 29.88 in 10.0 mi SW 12.7 mph 17.3 mph N/A   Clear
12:15 PM 75.4 °F - 25.3 °F 16% 29.88 in 10.0 mi WSW 16.1 mph 20.7 mph N/A   Clear
12:35 PM 76.5 °F - 24.1 °F 14% 29.87 in 10.0 mi WSW 12.7 mph 21.9 mph N/A   Clear
12:55 PM 77.0 °F - 24.3 °F 14% 29.86 in 10.0 mi WSW 15.0 mph 19.6 mph N/A   Clear
1:15 PM 78.4 °F - 23.0 °F 13% 29.85 in 10.0 mi WSW 12.7 mph 24.2 mph N/A   Clear
1:35 PM 80.8 °F - 22.3 °F 11% 29.84 in 10.0 mi WSW 15.0 mph 23.0 mph N/A   Clear
1:55 PM 80.8 °F - 20.8 °F 11% 29.82 in 10.0 mi West 13.8 mph 20.7 mph N/A   Clear
2:15 PM 81.0 °F - 20.1 °F 10% 29.81 in 10.0 mi SSW 10.4 mph 16.1 mph N/A   Clear
2:55 PM 83.5 °F - 21.9 °F 10% 29.79 in 10.0 mi West 16.1 mph 23.0 mph N/A   Clear
3:15 PM 83.1 °F - 19.8 °F 10% 29.79 in 10.0 mi West 8.1 mph 25.3 mph N/A   Clear
3:35 PM 83.3 °F - 19.8 °F 10% 29.78 in 10.0 mi West 17.3 mph 20.7 mph N/A   Clear
3:55 PM 83.5 °F - 18.1 °F 9% 29.76 in 10.0 mi WSW 5.8 mph 20.7 mph N/A   Clear
4:15 PM 84.2 °F - 19.6 °F 9% 29.76 in 10.0 mi WSW 21.9 mph 25.3 mph N/A   Clear
4:35 PM 82.2 °F - 19.0 °F 10% 29.74 in 10.0 mi SSW 6.9 mph 12.7 mph N/A   Clear
4:55 PM 83.8 °F - 19.0 °F 9% 29.73 in 10.0 mi WSW 13.8 mph 25.3 mph N/A   Clear
5:15 PM 82.6 °F - 18.5 °F 9% 29.72 in 10.0 mi Calm Calm - N/A   Clear
5:35 PM 82.6 °F - 18.3 °F 9% 29.72 in 10.0 mi SSE 8.1 mph - N/A   Clear
5:55 PM 79.5 °F - 24.8 °F 13% 29.73 in 10.0 mi ENE 15.0 mph 19.6 mph N/A   Clear
6:15 PM 76.1 °F - 31.3 °F 19% 29.72 in 10.0 mi NE 24.2 mph 35.7 mph N/A   Clear
6:35 PM 75.0 °F - 32.0 °F 21% 29.73 in 10.0 mi NE 26.5 mph 34.5 mph N/A   Scattered Clouds
6:55 PM 74.3 °F - 31.6 °F 21% 29.75 in 10.0 mi NE 24.2 mph 33.4 mph N/A   Scattered Clouds
7:15 PM 73.0 °F - 32.4 °F 22% 29.76 in 10.0 mi NE 23.0 mph 32.2 mph N/A   Clear
7:35 PM 66.4 °F - 41.2 °F 40% 29.79 in 2.5 mi NNE 35.7 mph 43.7 mph N/A   Haze
7:55 PM 56.1 °F - 41.9 °F 59% 29.83 in 2.0 mi NNE 31.1 mph 43.7 mph N/A   Haze
8:15 PM 51.1 °F - 39.0 °F 63% 29.83 in 3.0 mi NNE 32.2 mph 46.0 mph N/A   Haze
8:35 PM 46.8 °F - 36.9 °F 68% 29.87 in 4.0 mi North 27.6 mph 40.3 mph N/A   Haze
8:55 PM 43.9 °F 33.6 °F 36.0 °F 74% 29.91 in 5.0 mi North 31.1 mph 41.4 mph N/A   Haze
9:15 PM 41.9 °F 30.5 °F 35.1 °F 77% 29.94 in 5.0 mi North 33.4 mph 43.7 mph N/A   Haze
9:35 PM 39.6 °F 27.7 °F 33.1 °F 78% 29.97 in 7.0 mi North 31.1 mph 40.3 mph N/A   Overcast
9:55 PM 38.3 °F 25.8 °F 32.0 °F 78% 30.00 in 7.0 mi North 32.2 mph 44.9 mph N/A   Overcast
10:15 PM 36.7 °F 23.0 °F 31.1 °F 80% 30.00 in 7.0 mi North 35.7 mph 48.3 mph N/A   Overcast
10:35 PM 36.0 °F 21.3 °F 29.7 °F 78% 30.02 in 7.0 mi North 40.3 mph 48.3 mph N/A   Overcast
10:55 PM 35.1 °F 20.6 °F 28.4 °F 77% 30.02 in 7.0 mi North 36.8 mph 48.3 mph N/A   Mostly Cloudy
11:15 PM 34.0 °F 19.5 °F 28.9 °F 82% 30.04 in 7.0 mi North 34.5 mph 46.0 mph N/A   Mostly Cloudy
11:35 PM 33.1 °F 18.2 °F 29.1 °F 85% 30.05 in 7.0 mi North 34.5 mph 44.9 mph N/A   Overcast
11:55 PM 32.7 °F 18.8 °F 28.6 °F 85% 30.05 in 7.0 mi North 28.8 mph 43.7 mph N/A   Overcast